Grand Island, NE

11:13 PM CST on January 23, 2017 (GMT -0600)
Central Nebraska Regional

Weather History for KGRI - September, 2013

Change the Weather History Date:

Wednesday, September 18, 2013

  Actual Average Record
Temperature  
Mean Temperature 80 °F 64 °F  
Max Temperature 91 °F 77 °F 102 °F (1925)
Min Temperature 68 °F 51 °F 29 °F (1902)
Degree Days  
Heating Degree Days 0 4  
Month to date heating degree days 6 38  
Since 1 July heating degree days 9 48  
Cooling Degree Days 15 3  
Month to date cooling degree days 154 86  
Year to date cooling degree days 1217 1000  
Growing Degree Days 30 (Base 50)    
Moisture  
Dew Point 66 °F    
Average Humidity 69    
Maximum Humidity 93    
Minimum Humidity 44    
Precipitation  
Precipitation 0.00 in 0.07 in 3.36 in (1905)
Month to date precipitation 1.72 1.37  
Year to date precipitation 21.13 22.14  
Snow  
Snow 0.00 in 0.00 in - ()
Month to date snowfall 0.0 0.0  
Since 1 July snowfall 0.0 0.0  
Since 1 September snowfall 0.0 0.0  
Snow Depth 0.00 in    
Sea Level Pressure  
Sea Level Pressure 29.70 in    
Wind  
Wind Speed 14 mph (South)    
Max Wind Speed 22 mph    
Max Gust Speed 28 mph    
Visibility 10 miles    
Events      
T = Trace of Precipitation, MM = Missing Value Source: NWS Daily Summary

Daily Weather History Graph

Daily Weather History Graph

Search for Another Location

Airport or City:

Trip Planner

Search our weather history database for the weather conditions in past years. The results will help you decide how hot, cold, wet, or windy it might be!

Date:

Astronomy

Sep. 18, 2013 Rise Set
Actual Time 7:17 AM CDT 7:36 PM CDT
Civil Twilight 6:49 AM CDT 8:04 PM CDT
Nautical Twilight 6:17 AM CDT 8:36 PM CDT
Astronomical Twilight 5:44 AM CDT 9:09 PM CDT
Moon 7:00 PM CDT (9/18) 6:20 AM CDT (9/18)
Length of Visible Light 13h 14m
Length of Day
12h 19m
Waxing Gibbous, 99% of the Moon is Illuminated
Sep 18
Waxing Gibbous
Sep 19
Full
Sep 26
Last Quarter
Oct 4
New
Oct 11
First Quarter

Hourly Weather History & Observations

Time (CDT) Temp. Heat Index Dew Point Humidity Pressure Visibility Wind Dir Wind Speed Gust Speed Precip Events Conditions
12:53 AM 71.1 °F - 68.0 °F 90% 29.80 in 9.0 mi South 15.0 mph - N/A   Clear
1:53 AM 71.1 °F - 68.0 °F 90% 29.79 in 9.0 mi South 12.7 mph - N/A   Clear
2:53 AM 71.1 °F - 66.9 °F 87% 29.78 in 10.0 mi South 17.3 mph - N/A   Clear
3:53 AM 70.0 °F - 66.9 °F 90% 29.76 in 10.0 mi South 11.5 mph - N/A   Clear
4:53 AM 71.1 °F - 66.0 °F 84% 29.74 in 10.0 mi South 15.0 mph 23.0 mph N/A   Clear
5:53 AM 69.1 °F - 66.0 °F 90% 29.74 in 10.0 mi South 11.5 mph - N/A   Clear
6:53 AM 68.0 °F - 66.0 °F 93% 29.75 in 10.0 mi South 10.4 mph - N/A   Clear
7:53 AM 68.0 °F - 66.0 °F 93% 29.75 in 10.0 mi South 9.2 mph - N/A   Clear
8:53 AM 72.0 °F - 66.0 °F 81% 29.74 in 10.0 mi South 13.8 mph - N/A   Clear
9:53 AM 75.9 °F - 66.0 °F 71% 29.74 in 10.0 mi SSW 16.1 mph 23.0 mph N/A   Clear
10:53 AM 78.1 °F - 66.0 °F 66% 29.72 in 10.0 mi South 16.1 mph 25.3 mph N/A   Clear
11:53 AM 82.0 °F 84.5 °F 66.9 °F 60% 29.70 in 10.0 mi SSW 17.3 mph - N/A   Clear
12:53 PM 84.9 °F 87.6 °F 66.9 °F 55% 29.69 in 10.0 mi SSW 17.3 mph 25.3 mph N/A   Clear
1:53 PM 87.1 °F 89.9 °F 66.9 °F 51% 29.67 in 10.0 mi South 18.4 mph 21.9 mph N/A   Clear
2:53 PM 89.1 °F 92.1 °F 66.9 °F 48% 29.65 in 10.0 mi SSW 17.3 mph 25.3 mph N/A   Clear
3:53 PM 90.0 °F 92.4 °F 66.0 °F 45% 29.63 in 10.0 mi SSW 16.1 mph 26.5 mph N/A   Clear
4:53 PM 91.0 °F 93.8 °F 66.0 °F 44% 29.62 in 10.0 mi SSW 18.4 mph 25.3 mph N/A   Clear
5:53 PM 91.0 °F 93.8 °F 66.0 °F 44% 29.62 in 10.0 mi SSW 13.8 mph 19.6 mph N/A   Clear
6:53 PM 86.0 °F 88.8 °F 66.9 °F 53% 29.62 in 10.0 mi South 6.9 mph - N/A   Clear
7:53 PM 82.9 °F 85.0 °F 66.0 °F 56% 29.63 in 10.0 mi South 9.2 mph - N/A   Clear
8:53 PM 80.1 °F 82.1 °F 66.0 °F 62% 29.64 in 10.0 mi South 9.2 mph - N/A   Clear
9:53 PM 79.0 °F - 64.9 °F 62% 29.65 in 10.0 mi South 12.7 mph - N/A   Clear
10:53 PM 77.0 °F - 64.9 °F 66% 29.66 in 10.0 mi South 12.7 mph - N/A   Clear
11:53 PM 77.0 °F - 64.0 °F 64% 29.65 in 10.0 mi South 12.7 mph - N/A   Clear